Home   Weather   Cupertino   Past weeks
Flag for USA

Past Weather in Cupertino, California, USA — Yesterday and Last 2 Weeks

Now
72 °F

Sunny.


Feels Like: 76 °F
Forecast: 78 / 59 °F
Wind: 6 mph from North

Location: Moffett Field

Current Time: Jul 18, 2019 at 11:04:37 am

Latest Report: Jul 18, 2019 at 9:56 am


Visibility: 10 mi

Pressure: 29.94 "Hg

Humidity: 61%

Dew Point: 58 °F

Location of CupertinoLocation

Past Weather in Cupertino — Graph

°F

Cupertino Temperature Yesterday

Maximum temperature yesterday: 83 °F (at 2:56 pm)
Minimum temperature yesterday: 59 °F (at 5:56 am)
Average temperature yesterday: 70 °F

High & Low Weather Summary for the Past Weeks

 TemperatureHumidityPressure
High86 °F (Jul 16, 3:56 pm)90% (Jul 11, 6:56 am)30.12 "Hg (Jul 11, 6:56 am)
Low56 °F (Jul 4, 5:56 am)28% (Jul 16, 3:56 pm)29.88 "Hg (Jul 17, 3:56 am)
Average67 °F68%29.99 "Hg
* Reported Jul 3 9:56 am — Jul 18 9:56 am, Cupertino. Weather by CustomWeather, © 2019

Note: Actual official high and low records may vary slightly from our data, if they occured in-between our weather recording intervals... More about our weather records

Advertising

Cupertino Weather History for the Previous 24 Hours

Scroll right to see more
 ConditionsComfort  
Time TempWeatherWind HumidityBarometerVisibility
9:56 am
Thu, Jul 18
72 °FSunny.6 mph61%29.94 "Hg10 mi
8:56 am68 °FSunny.No wind65%29.94 "Hg10 mi
7:56 am64 °FSunny.5 mph73%29.94 "Hg10 mi
6:56 am62 °FSunny.No wind75%29.93 "Hg10 mi
5:56 am61 °FClear.3 mph75%29.92 "Hg10 mi
4:56 am62 °FPassing clouds.6 mph78%29.92 "Hg10 mi
3:56 am63 °FClear.5 mph84%29.92 "Hg10 mi
2:56 am64 °FClear.6 mph81%29.91 "Hg10 mi
1:56 am65 °FClear.5 mph78%29.92 "Hg10 mi
12:56 am65 °FClear.3 mph76%29.92 "Hg10 mi
11:56 pm
Wed, Jul 17
66 °FClear.6 mph78%29.92 "Hg10 mi
10:56 pm67 °FClear.5 mph76%29.92 "Hg10 mi
9:56 pm68 °FClear.6 mph73%29.92 "Hg10 mi
8:56 pm69 °FClear.8 mph73%29.91 "Hg10 mi
7:56 pm73 °FSunny.9 mph64%29.89 "Hg10 mi
6:56 pm75 °FSunny.9 mph60%29.89 "Hg10 mi
5:56 pm77 °FSunny.14 mph56%29.89 "Hg10 mi
4:56 pm77 °FSunny.13 mph56%29.90 "Hg10 mi
3:56 pm80 °FSunny.13 mph51%29.89 "Hg10 mi
2:56 pm83 °FSunny.13 mph40%29.90 "Hg10 mi
1:56 pm80 °FSunny.12 mph41%29.90 "Hg10 mi
12:56 pm79 °FSunny.9 mph45%29.91 "Hg10 mi
11:56 am80 °FSunny.3 mph41%29.91 "Hg10 mi
Weather by CustomWeather, © 2019

See weather overview